Regional Weather Roundup
Issued by NWS

Home | Current Version | Previous Version | Graphics & Text | Print | Product List | Glossary On
Versions: 1 2 3 4 5 6 7 8 9 10 11 12 13 14 15 16 17 18 19 20 21 22 23 24 25 26 27
000
ASUS45 KBOI 170910
RWRID

IDAHO REGIONAL WEATHER ROUNDUP
NATIONAL WEATHER SERVICE BOISE ID
200 AM MST SUN DEC 17 2017

NOTE: "FAIR" INDICATES FEW OR NO CLOUDS BELOW 12000 FEET
WITH NO SIGNIFICANT WEATHER AND/OR OBSTRUCTIONS TO VISIBILITY

IDZ012-014-171000-
SOUTHWEST IDAHO


CITY           SKY/WX    TMP DP  RH WIND       PRES   REMARKS
BOISE          CLEAR     20  16  84 W3        30.23R
CALDWELL       CLEAR     25  21  85 W5        30.26R WCI  19
MOUNTAIN HOME  CLEAR     25  25 100 NW9       30.22R WCI  16
$$

IDZ016-017-171000-
SOUTHCENTRAL IDAHO


CITY           SKY/WX    TMP DP  RH WIND       PRES   REMARKS
BURLEY           N/A     26  19  74 W12       30.15S WCI  16
JEROME         CLOUDY    25  21  85 SW9       30.17R WCI  15
TWIN FALLS     PTCLDY    24  18  77 SW10      30.17S WCI  14
$$

IDZ019>023-171000-
SOUTHEAST IDAHO


CITY           SKY/WX    TMP DP  RH WIND       PRES   REMARKS
IDAHO FALLS      N/A     20  19  96 SW8       30.14S VSB 1/4 WCI  10
POCATELLO      CLOUDY    27  24  89 SW14      30.15S WCI  16
REXBURG        CLOUDY    21  20  96 SW6       30.11S WCI  13
$$

IDZ006-010-011-018-031-032-171000-
CENTRAL IDAHO MOUNTAINS


CITY           SKY/WX    TMP DP  RH WIND       PRES   REMARKS
MCCALL         CLEAR      6   1  80 CALM      30.14R
HAILEY         CLEAR     12  10  92 NW7       30.12R WCI   2
STANLEY          N/A     -2  -5  87 CALM      30.12R
SALMON         CLOUDY     7   4  87 SE3       30.21R
CHALLIS        CLEAR      9   3  77 S6        30.15R WCI  -1
$$

IDZ002-004-006-007-026-171000-
NORTHERN IDAHO


CITY           SKY/WX    TMP DP  RH WIND       PRES   REMARKS
LEWISTON       CLOUDY    28  26  92 CALM      30.28F
LOWELL           N/A     28  25  88 CALM      30.34R
COEUR D`ALENE  CLOUDY    27  23  85 S7        30.20F WCI  19
MULLAN PASS    PTCLDY    17  12  80 SW8       30.01S WCI   7
$$




USA.gov is the U.S. government's official web portal to all federal, state and local government web resources and services.